Weather History for KDDC - March, 2013

Change the Weather History Date:

Friday, March 8, 2013

  Actual Average Record
Temperature  
Mean Temperature 56 °F -  
Max Temperature 66 °F 56 °F 86 °F (1899)
Min Temperature 45 °F 28 °F -1 °F (1967)
Degree Days  
Heating Degree Days 10    
Growing Degree Days 6 (Base 50)    
Moisture  
Dew Point 44 °F    
Average Humidity 71    
Maximum Humidity 94    
Minimum Humidity 46    
Precipitation  
Precipitation 0.08 in - - ()
Sea Level Pressure  
Sea Level Pressure 29.83 in    
Wind  
Wind Speed 18 mph (SSE)    
Max Wind Speed 31 mph    
Max Gust Speed 41 mph    
Visibility 9 miles    
Events Rain    
Averages and records for this station are not official NWS values.
T = Trace of Precipitation, MM = Missing Value Source: NWS Daily Summary

Daily Weather History Graph

Daily Weather History Graph

Search for Another Location

Airport or City:

Trip Planner

Search our weather history database for the weather conditions in past years. The results will help you decide how hot, cold, wet, or windy it might be!

Date:

Astronomy

Mar. 08, 2013 Rise Set
Actual Time 7:00 AM CST 6:40 PM CST
Civil Twilight 6:34 AM CST 7:06 PM CST
Nautical Twilight 6:04 AM CST 7:37 PM CST
Astronomical Twilight 5:33 AM CST 8:07 PM CST
Moon 4:43 AM CST (3/8) 3:40 PM CST (3/8)
Length of Visible Light 12h 32m
Length of Day
11h 39m
Waning Crescent, 11% of the Moon is Illuminated
Mar 8
Waning Crescent
Mar 11
New
Mar 19
First Quarter
Mar 27
Full
Apr 2
Last Quarter

Hourly Weather History & Observations

Time (CST) Temp. Windchill Dew Point Humidity Pressure Visibility Wind Dir Wind Speed Gust Speed Precip Events Conditions
12:52 AM 42.1 °F 35.7 °F 30.9 °F 65% 29.94 in 10.0 mi SSE 11.5 mph - N/A   Clear
1:52 AM 44.1 °F 37.4 °F 30.9 °F 60% 29.91 in 10.0 mi SSE 13.8 mph - N/A   Clear
2:52 AM 43.0 °F 35.7 °F 30.9 °F 62% 29.90 in 10.0 mi SSE 15.0 mph - N/A   Clear
3:52 AM 45.0 °F 38.5 °F 33.1 °F 63% 29.88 in 10.0 mi South 13.8 mph - N/A   Clear
4:52 AM 45.0 °F 38.2 °F 34.0 °F 65% 29.86 in 10.0 mi SSE 15.0 mph - N/A   Clear
5:52 AM 46.0 °F 39.3 °F 36.0 °F 68% 29.87 in 10.0 mi South 16.1 mph - N/A   Clear
6:52 AM 45.0 °F 37.9 °F 36.0 °F 71% 29.89 in 10.0 mi SSE 16.1 mph - N/A   Clear
7:52 AM 46.0 °F 38.5 °F 37.9 °F 73% 29.90 in 10.0 mi SSE 19.6 mph 25.3 mph N/A   Partly Cloudy
8:52 AM 48.0 °F - 39.9 °F 74% 29.92 in 10.0 mi SSE 20.7 mph - N/A   Partly Cloudy
9:52 AM 52.0 °F - 41.0 °F 66% 29.92 in 10.0 mi South 24.2 mph - N/A   Scattered Clouds
10:52 AM 57.9 °F - 43.0 °F 58% 29.90 in 10.0 mi South 20.7 mph - N/A   Scattered Clouds
11:52 AM 57.9 °F - 43.0 °F 58% 29.88 in 10.0 mi SSE 23.0 mph 31.1 mph N/A   Clear
12:52 PM 63.0 °F - 45.0 °F 52% 29.86 in 10.0 mi South 20.7 mph - N/A   Partly Cloudy
1:52 PM 61.0 °F - 46.0 °F 58% 29.81 in 10.0 mi SSE 18.4 mph 29.9 mph N/A   Scattered Clouds
2:52 PM 61.0 °F - 48.0 °F 62% 29.80 in 10.0 mi South 23.0 mph 29.9 mph 0.00 in Rain Light Rain
3:52 PM 62.1 °F - 48.9 °F 62% 29.76 in 10.0 mi SSE 20.7 mph 29.9 mph 0.00 in   Mostly Cloudy
4:52 PM 61.0 °F - 50.0 °F 67% 29.77 in 9.0 mi SSE 29.9 mph 35.7 mph N/A   Overcast
5:17 PM 60.8 °F - 50.0 °F 68% 29.79 in 9.0 mi SSE 31.1 mph 39.1 mph N/A   Mostly Cloudy
5:52 PM 57.0 °F - 48.9 °F 74% 29.77 in 9.0 mi South 25.3 mph 35.7 mph N/A   Mostly Cloudy
6:52 PM 55.9 °F - 50.0 °F 80% 29.77 in 9.0 mi South 24.2 mph - N/A   Overcast
7:52 PM 55.9 °F - 51.1 °F 84% 29.76 in 9.0 mi SSE 20.7 mph 29.9 mph N/A   Overcast
8:52 PM 55.9 °F - 51.1 °F 84% 29.75 in 8.0 mi SSE 23.0 mph 33.4 mph N/A   Overcast
9:02 PM 55.4 °F - 51.8 °F 88% 29.77 in 8.0 mi SSE 20.7 mph 33.4 mph N/A   Overcast
9:52 PM 55.9 °F - 52.0 °F 87% 29.74 in 8.0 mi South 25.3 mph 31.1 mph N/A   Overcast
10:52 PM 55.0 °F - 52.0 °F 89% 29.75 in 5.0 mi South 21.9 mph - 0.01 in Rain Light Rain
11:14 PM 55.4 °F - 53.6 °F 94% 29.79 in 2.5 mi South 25.3 mph 41.4 mph 0.04 in Rain Rain
11:22 PM 55.4 °F - 53.6 °F 94% 29.78 in 7.0 mi South 18.4 mph 31.1 mph 0.04 in   Overcast
11:49 PM 55.4 °F - 53.6 °F 94% 29.77 in 7.0 mi SSE 16.1 mph - 0.05 in Rain Light Rain
11:52 PM 55.0 °F - 52.0 °F 89% 29.73 in 7.0 mi South 13.8 mph - 0.05 in Rain Light Rain